Location: Pedholt
(56.0260°N, 10.2097°E)
Time: 04:36:48
(UTC+00:00)

UNK - Pass Details

Date: 14 July 2020
Orbit: 667 x 686 km, 98.1° (Epoch: 14 August)

Event Time Altitude Azimuth Distance (km) Brightness Sun altitude
Exits shadow 01:33:04 - 195° (SSW) 2,200 5.8 -7.8°
Reaches altitude 10° 01:33:19 10° 196° (SSW) 2,108 5.7 -7.7°
Maximum altitude 01:37:35 37° 264° (W) 1,065 4.5 -7.4°
Drops below altitude 10° 01:41:55 10° 331° (NNW) 2,134 6.7 -7.1°
Sets 01:44:20 0° 340° (NNW) 3,057 7.7 -6.9°
